TimeEDT,TemperatureF,Dew PointF,Humidity,Sea Level PressureIn,VisibilityMPH,Wind Direction,Wind SpeedMPH,Gust SpeedMPH,PrecipitationIn,Events,Conditions,WindDirDegrees,DateUTC
12:53 AM,69.1,64.0,84,30.19,10.0,NE,3.5,-,N/A,,Clear,40,2012-10-13 04:53:00
1:53 AM,68.0,64.0,87,30.18,10.0,Calm,Calm,-,N/A,,Clear,0,2012-10-13 05:53:00
2:53 AM,68.0,64.9,90,30.17,10.0,NE,3.5,-,N/A,,Clear,40,2012-10-13 06:53:00
3:53 AM,68.0,64.0,87,30.16,10.0,NNE,5.8,-,N/A,,Clear,30,2012-10-13 07:53:00
4:53 AM,68.0,64.0,87,30.16,10.0,North,4.6,-,N/A,,Clear,10,2012-10-13 08:53:00
5:53 AM,66.9,64.0,90,30.16,10.0,North,5.8,-,N/A,,Clear,10,2012-10-13 09:53:00
6:53 AM,66.9,64.0,90,30.18,10.0,North,4.6,-,N/A,,Clear,360,2012-10-13 10:53:00
7:53 AM,66.9,64.0,90,30.19,9.0,North,5.8,-,N/A,,Clear,10,2012-10-13 11:53:00
8:53 AM,70.0,64.9,84,30.21,10.0,NNE,4.6,-,N/A,,Overcast,20,2012-10-13 12:53:00
9:53 AM,78.1,66.0,66,30.22,10.0,NNE,6.9,-,N/A,,Clear,30,2012-10-13 13:53:00
10:53 AM,80.1,64.0,58,30.22,10.0,ENE,12.7,-,N/A,,Scattered Clouds,60,2012-10-13 14:53:00
11:53 AM,81.0,64.0,56,30.22,10.0,East,9.2,-,N/A,,Partly Cloudy,80,2012-10-13 15:53:00
12:53 PM,82.0,64.0,54,30.20,10.0,ENE,11.5,18.4,N/A,,Mostly Cloudy,60,2012-10-13 16:53:00
1:53 PM,82.9,64.0,53,30.18,10.0,ENE,13.8,23.0,N/A,,Overcast,60,2012-10-13 17:53:00
2:53 PM,82.9,64.9,54,30.15,10.0,East,8.1,20.7,N/A,,Mostly Cloudy,80,2012-10-13 18:53:00
3:53 PM,86.0,63.0,46,30.14,10.0,ENE,17.3,23.0,N/A,,Partly Cloudy,60,2012-10-13 19:53:00
4:53 PM,82.9,62.1,49,30.14,10.0,ENE,13.8,20.7,N/A,,Clear,70,2012-10-13 20:53:00
5:53 PM,81.0,64.0,56,30.14,10.0,ENE,15.0,-,N/A,,Mostly Cloudy,60,2012-10-13 21:53:00
6:53 PM,78.1,64.0,62,30.14,10.0,ENE,11.5,17.3,N/A,,Clear,60,2012-10-13 22:53:00
8:53 PM,73.0,64.9,76,30.17,10.0,NE,5.8,-,N/A,,Clear,50,2012-10-14 00:53:00
10:53 PM,70.0,66.0,87,30.17,10.0,NE,4.6,-,N/A,,Clear,50,2012-10-14 02:53:00
11:53 PM,70.0,66.0,87,30.17,10.0,NNE,3.5,-,N/A,,Clear,30,2012-10-14 03:53:00